Probability
0 0 0 0 0 0 0 0 0 0 0 0 0 0 0 0 0 0 0 0 0 0 0 0 0 0 0 0 0 0 0 0 0 0 0 0 0 0 0 0 0 0 0 0
0 0 0 0 0 0 0 0 0 0 0 0 0 0 0 0 0 0 0 0 0 0 0 0 0 0 0 0 0 0 0 0 0 0 0 0 0 0 0 0 0 0 0 0
0 0 0 0 0 0 0 0 0 0 0 0 0 0 0 0 0 0 0 0 0 0 0 0 0 0 0 0 0 0 0 0 0 0 0 0 0 0 0 0 0 0 0 0
0 0 0 0 0 0 0 0 0 0 0 0 0 0 0 0 0 0 0 0 0 0 0 0 0 0 0 0 0 0 0 0 0 0 0 0 0 0 0 0 0 0 0 0
0 0 0 0 0 0 0 0 0 0 0 0 0 0 0 0 0 0 0 0 0 0 0 0 0 0 0 0 0 0 0 0 0 0 0 0 0 0 0 0 0 0 0 0
0 0 0 0 0 0 0 0 0 0 0 0 0 0 0 0 0 0 0 0 0 0 0 0 0 0 0 0 0 0 0 0 0 0 0 0 0 0 0 0 0 0 0 0
0 0 0 0 0 0 0 0 0 0 0 0 0 0 0 0 0 0 0 0 0 0 0 0 0 0 0 0 0 0 0 0 0 0 0 0 0 0 0 0 0 0 0 0
0 0 0 0 0 0 0 0 0 0 0 0 0 0 0 0 0 0 0 0 0 0 0 0 0 0 0 0 0 0 0 0 0 0 0 0 0 0 0 0 0 0 0 0
0 0 0 0 0 0 0 0 0 0 0 0 0 0 0 0 0 0 0 0 0 0 0 0 0 0 0 0 0 0 0 0 0 0 0 0 0 0 0 0 0 0 0 0
0 0 0 0 0 0 0 0 0 0 0 0 0 0 0 0 0 0 0 0 0 0 0 0 0 0 0 0 0 0 0 0 0 0 0 0 0 0 0 0 0 0 0 0
0 0 0 0 0 0 0 0 0 0 0 0 0 0 0 0 0 0 0 0 0 0 0 0 0 0 0 0 0 0 0 0 0 0 0 0 0 0 0 0 0 0 0 0
0 0 0 0 0 0 0 0 0 0 0 0 0 0 0 0 0 0 0 0 0 0 0 0 0 0 0 0 0 0 0 0 0 0 0 0 0 0 0 0 0 0 0 0
0 0 0 0 0 0 0 0 0 0 0 0 0 0 0 0 0 0 0 0 0 0 0 0 0 0 0 0 0 0 0 0 0 0 0 0 0 0 0 0 0 0 0 0
0 0 0 0 0 0 0 0 0 0 0 0 0 0 0 0 0 0 0 0 0 0 0 0 0 0 0 0 0 0 0 0 0 0 0 0 0 0 0 0 0 0 0 0
0 0 0 0 0 0 0 0 0 0 0 0 0 0 0 0 0 0 0 0 0 0 0 0 0 0 0 0 0 0 0 0 0 0 0 0 0 0 0 0 0 0 0 0
0 0 0 0 0 0 0 0 0 0 0 0 0 0 0 0 0 0 0 0 0 0 0 0 0 0 0 0 0 0 0 0 0 0 0 0 0 0 0 0 0 0 0 0
0 0 0 0 0 0 0 0 0 0 0 0 0 0 0 0 0 0 0 0 0 0 0 0 0 0 0 0 0 0 0 0 0 0 0 0 0 0 0 0 0 0 0 0
0 0 0 0 0 0 0 0 0 0 0 0 0 0 0 0 0 0 0 0 0 0 0 0 0 0 0 0 0 0 0 0 0 0 0 0 0 0 0 0 0 0 0 0
0 0 0 0 1 1 1 0 0 0 0 0 0 0 0 0 0 0 0 0 0 0 0 0 0 0 0 0 0 0 0 0 0 0 0 0 0 0 0 0 0 0 0 0
0 0 0 1 1 2 2 1 1 1 1 0 0 0 0 0 0 0 0 0 0 0 0 0 0 0 0 0 0 0 0 0 0 0 0 0 0 0 0 0 0 0 0 0
0 0 1 1 3 4 4 3 3 3 2 2 1 0 0 1 1 1 1 0 0 0 0 0 0 0 0 0 0 0 0 0 0 0 0 0 0 0 0 0 0 0 0 0
0 0 1 2 4 6 6 5 4 3 4 5 5 3 4 5 4 2 1 0 0 0 0 0 0 0 0 0 0 0 0 0 0 0 0 0 0 0 0 0 0 0 0 0
0 0 0 1 4 6 7 5 4 3 8 13 14 13 14 14 9 4 1 0 0 0 0 0 0 0 0 0 0 0 0 0 0 0 0 0 0 0 0 0 0 0 0 0
0 0 0 0 2 4 5 5 5 7 12 17 22 25 25 19 11 4 1 0 0 0 0 0 0 0 0 0 0 0 0 0 0 0 0 0 0 0 0 0 0 0 0 0
0 0 0 0 0 1 2 3 6 9 12 15 21 26 24 17 10 4 1 0 0 0 0 0 0 0 0 0 0 0 0 0 0 0 0 0 0 0 0 0 0 0 0 0
0 0 0 0 0 0 0 1 3 6 9 11 15 18 17 13 9 5 2 0 0 0 0 0 0 0 0 0 0 0 0 0 0 0 0 0 0 0 0 0 0 0 0 0
0 0 0 0 0 0 0 0 1 2 6 9 11 13 13 11 8 5 2 0 0 0 0 0 0 0 0 0 0 0 0 0 0 0 0 0 0 0 0 0 0 0 0 0
Wind_Speed
9 8 7 8 7 6 6 6 8 9 10 8 9 9 8 8 9 9 9 9 10 10 9 9 9 9 9 10 10 10 11 11 10 9 9 9 9 10 10 10 12 10 10 10
12 11 8 10 9 6 5 6 8 9 9 9 9 9 9 9 9 8 9 10 11 11 10 10 10 10 9 10 9 9 10 11 11 10 10 10 10 10 10 10 11 10 11 12
12 12 11 9 4 2 5 8 8 9 8 9 10 9 9 7 6 7 9 10 11 11 10 9 9 8 9 9 10 10 10 11 11 11 12 11 12 12 12 11 11 11 11 12
11 13 13 6 0 2 3 5 7 9 5 9 9 9 7 7 6 7 9 10 10 10 11 11 10 9 9 11 11 11 11 12 11 12 12 12 12 12 11 10 10 10 11 12
9 12 11 3 2 1 3 7 6 5 7 9 10 9 6 7 5 6 8 8 9 10 11 11 10 10 10 11 12 12 12 12 12 12 13 13 13 12 11 10 10 10 11 10
9 13 15 11 7 6 3 2 8 7 7 8 9 8 4 7 7 8 8 8 9 10 10 10 10 10 11 12 12 12 13 13 13 13 13 14 13 12 10 9 10 10 10 9
11 13 8 8 7 2 6 4 3 6 6 7 6 5 7 7 7 7 8 9 9 9 9 8 9 9 11 12 12 12 13 13 13 13 13 13 11 9 9 9 10 9 10 8
9 10 3 5 3 5 4 1 4 5 5 5 5 6 6 7 7 7 8 9 10 8 8 8 9 9 11 12 12 12 13 14 14 13 13 12 11 10 9 9 9 8 7 7
5 6 1 5 5 3 2 2 4 5 5 4 5 6 6 6 6 7 8 9 9 9 9 9 8 8 11 11 12 13 13 14 14 15 13 12 10 10 8 7 6 6 6 6
7 8 8 9 8 4 3 3 3 3 3 4 5 6 6 6 6 7 7 8 9 10 11 10 9 9 10 10 11 12 13 14 13 13 13 11 8 7 7 6 6 6 6 5
12 10 10 9 7 5 3 3 3 3 3 4 4 5 5 5 5 6 7 7 8 9 10 11 10 10 10 10 11 12 13 13 13 12 11 10 9 7 7 4 3 4 6 6
9 7 7 7 6 4 4 5 5 5 5 4 4 4 5 5 5 6 7 7 8 9 11 11 11 10 9 9 10 11 12 12 10 10 10 9 9 8 5 5 4 4 5 5
11 9 8 8 5 4 5 6 6 6 5 5 4 4 4 4 5 6 7 8 9 10 10 11 10 10 10 10 11 12 12 12 10 10 10 9 8 8 6 4 5 7 6 6
10 7 8 8 8 7 7 8 6 6 6 5 4 4 4 5 5 6 7 8 8 9 10 10 10 10 10 11 11 12 12 12 10 9 9 9 8 7 6 5 4 3 5 6
10 8 8 8 9 9 8 8 8 7 7 7 6 5 4 4 5 6 6 7 8 9 10 10 10 10 10 11 12 12 11 9 9 10 10 9 8 7 5 5 4 3 1 3
11 10 8 9 9 9 10 10 9 9 8 7 6 4 4 3 4 5 6 6 8 9 9 9 9 9 10 11 12 10 9 12 12 10 9 8 7 7 5 4 4 4 3 1
10 9 9 9 9 10 10 10 10 9 8 7 5 4 3 4 5 5 6 6 7 8 8 7 8 10 11 10 10 9 10 10 13 10 7 7 7 7 5 4 4 3 2 1
9 10 10 10 10 10 10 10 9 8 7 6 5 4 4 4 5 5 6 6 7 8 5 6 8 10 10 9 9 9 9 9 9 9 7 6 7 6 5 4 4 4 3 0
10 11 12 12 11 10 8 7 6 5 4 4 3 3 3 4 4 4 5 6 8 7 5 7 8 10 9 8 10 8 9 9 9 9 7 6 6 5 5 4 4 4 3 2
12 13 13 13 13 10 8 6 4 2 2 3 4 4 4 5 4 4 5 6 5 3 5 7 8 8 8 9 11 9 9 9 9 9 7 5 5 6 4 4 4 4 4 3
14 15 15 14 13 11 10 7 4 2 2 4 4 5 5 5 5 5 5 6 1 4 4 6 5 5 7 10 12 8 8 8 9 8 8 7 6 5 4 3 3 3 3 3
14 14 15 14 13 11 9 8 6 4 4 5 6 7 7 6 7 6 6 4 1 4 3 5 4 6 9 12 8 7 7 8 8 8 8 7 6 5 4 4 3 3 3 3
12 13 14 14 14 13 11 9 8 7 6 7 8 9 9 7 6 5 5 2 3 3 2 2 3 5 11 9 6 6 7 8 8 8 8 7 6 5 5 4 3 3 3 3
13 14 14 14 14 14 13 12 11 8 8 9 10 10 10 8 7 8 5 6 7 4 2 3 2 5 10 6 5 6 6 7 7 8 8 7 6 6 6 6 4 4 4 5
15 15 15 15 14 13 12 11 11 10 12 10 11 11 10 9 8 6 4 7 10 5 3 6 7 7 7 4 5 6 6 6 7 8 7 7 7 6 6 6 7 5 5 6
13 13 12 12 12 11 12 12 11 10 9 9 8 8 8 8 8 5 4 6 8 6 4 2 3 4 3 4 5 5 6 7 7 7 8 7 7 7 6 6 7 6 6 7
14 12 10 11 10 10 10 9 9 8 7 6 6 6 7 7 7 6 6 4 4 3 2 1 1 2 3 4 5 5 6 6 7 8 8 7 7 7 7 7 6 6 6 6
Wind_Direction
310 310 313 315 312 314 314 320 311 326 328 21 33 10 1 352 353 348 348 348 345 340 335 331 329 326 321 319 318 317 314 310 306 303 301 299 297 296 293 290 289 286 284 280
304 302 286 286 287 277 288 297 300 312 324 35 20 5 357 350 340 336 345 342 337 333 331 328 325 322 321 318 318 317 311 308 306 304 302 299 299 297 294 292 290 286 283 279
304 309 298 301 302 286 322 320 322 317 337 21 3 351 341 336 342 351 343 335 335 334 328 323 321 323 320 320 319 316 312 308 307 306 305 303 305 304 299 297 293 287 283 279
292 300 296 310 345 330 339 325 312 307 5 17 354 348 7 51 36 350 336 339 337 328 323 322 326 325 324 322 319 316 312 310 311 309 307 307 305 300 298 297 294 290 285 281
293 294 298 310 203 166 334 311 324 1 16 352 351 328 85 60 13 352 349 342 330 323 321 323 325 329 326 320 318 315 314 315 315 313 310 307 304 302 300 297 295 290 287 281
274 289 295 311 101 91 332 347 47 26 359 345 336 320 5 19 3 4 347 333 325 323 323 325 329 329 322 318 317 317 319 318 315 312 309 305 301 299 298 296 293 294 292 287
264 275 292 80 99 295 312 62 10 351 348 336 347 325 326 338 357 352 336 329 329 330 327 327 326 325 319 317 319 321 319 315 313 311 308 301 299 301 300 297 296 297 296 292
275 283 333 101 309 343 13 14 328 334 332 337 324 313 324 340 347 341 333 332 335 330 327 325 327 325 318 318 323 321 318 315 314 312 309 308 306 302 301 298 298 299 301 300
315 321 296 259 298 325 336 307 311 313 328 331 315 316 326 336 341 335 332 333 331 328 324 324 329 328 318 321 324 322 319 316 314 312 307 305 303 303 303 301 301 305 309 311
291 285 291 294 297 284 258 251 272 295 308 304 300 312 323 331 332 330 332 329 329 327 325 325 328 328 322 323 325 322 319 317 313 310 309 310 308 305 305 308 311 315 317 319
272 272 271 270 277 268 255 227 237 257 264 271 285 297 312 322 328 332 325 324 326 325 323 324 327 325 325 328 327 322 319 316 314 310 310 311 310 307 304 308 304 300 314 319
301 312 301 297 289 258 236 231 236 246 259 266 275 292 307 316 325 320 318 324 325 326 325 326 326 326 329 331 329 323 317 316 314 311 312 313 313 312 292 277 258 246 259 285
293 289 285 289 280 255 244 241 232 223 232 249 263 277 293 301 308 315 321 328 328 325 324 323 325 328 333 334 328 319 314 313 312 311 311 312 312 312 308 286 248 249 254 257
292 280 274 277 276 265 250 248 240 228 221 227 240 251 271 290 306 317 323 325 324 323 321 326 329 330 336 332 323 318 316 312 311 312 312 310 309 307 308 309 302 276 231 231
290 269 259 259 257 258 249 242 239 234 228 224 221 229 253 281 301 309 317 323 324 320 326 331 328 330 337 329 321 319 318 316 318 315 309 309 310 314 318 322 314 303 264 181
292 283 271 265 261 261 258 245 240 240 240 238 232 231 250 275 291 303 314 323 325 325 326 324 326 334 332 323 320 318 314 312 313 313 314 316 322 327 334 333 331 324 313 245
298 295 291 284 276 266 259 250 243 239 240 238 224 216 231 261 283 296 316 327 326 314 313 325 334 336 324 319 323 320 317 317 315 313 320 327 330 331 338 337 335 334 339 33
323 320 313 304 296 288 276 262 247 236 229 228 212 203 218 249 278 303 315 318 311 303 322 347 352 326 313 324 331 318 314 317 320 320 324 330 328 328 338 340 344 352 341 295
352 344 336 326 317 306 295 286 271 243 205 194 205 215 225 248 267 286 300 307 300 303 349 355 338 309 318 341 341 314 314 320 323 324 329 327 323 334 348 350 350 354 349 349
6 360 352 342 337 332 324 316 303 274 173 171 189 211 233 247 262 276 288 288 294 351 348 340 318 316 330 344 336 313 318 324 327 328 332 337 342 345 358 360 355 352 353 357
7 3 359 352 347 345 340 333 317 273 202 190 199 218 233 242 252 262 270 282 7 73 334 300 289 339 343 332 308 308 326 329 329 332 336 345 351 349 359 4 353 357 5 9
359 354 350 345 342 340 335 325 306 280 228 200 207 220 226 231 241 247 248 253 159 102 310 307 3 8 334 316 304 325 334 332 332 335 339 345 351 351 0 14 9 10 12 14
341 337 333 331 326 319 312 301 284 267 244 222 210 214 222 222 232 244 253 200 143 116 287 340 33 329 318 305 315 333 337 338 338 340 342 344 351 349 350 7 17 26 22 27
322 319 316 313 308 303 297 288 278 261 248 237 223 215 215 219 222 226 218 139 138 148 274 125 190 296 295 292 332 346 344 345 343 340 340 343 353 354 355 1 12 22 20 35
307 305 301 298 294 290 286 280 272 256 247 242 235 222 216 221 228 229 199 148 148 172 232 176 201 255 283 328 1 356 351 355 342 329 336 348 355 359 4 0 2 13 14 18
296 291 291 287 286 286 285 282 277 271 262 250 240 231 222 217 213 201 184 181 166 176 235 226 214 243 313 358 12 6 358 352 344 343 348 352 356 356 359 360 359 12 19 20
288 287 284 284 289 295 300 301 299 297 291 279 263 242 225 213 195 183 186 189 169 179 206 262 343 9 20 17 17 15 10 2 353 346 347 352 352 348 353 359 5 21 24 23